Time,TemperatureF,DewpointF,PressureIn,WindDirection,WindDirectionDegrees,WindSpeedMPH,WindSpeedGustMPH,Humidity,HourlyPrecipIn,Conditions,Clouds,dailyrainin,SoftwareType,DateUTC
2013-08-21 00:01:00,74.2,45.5,30.10,SE,136,1.1,1.1,36,0.00,-RA,OVC,0.00,WeatherDisplay:10.37,2013-08-21 06:01:00,
2013-08-21 00:06:00,73.5,46.3,30.10,SE,136,0.0,0.0,38,0.00,-RA,OVC,0.00,WeatherDisplay:10.37,2013-08-21 06:06:00,
2013-08-21 00:11:00,72.9,47.2,30.10,SE,136,0.0,0.0,40,0.00,-RA,OVC,0.00,WeatherDisplay:10.37,2013-08-21 06:11:00,
2013-08-21 00:16:00,72.3,47.9,30.10,SE,136,0.0,0.0,42,0.00,-RA,OVC,0.00,WeatherDisplay:10.37,2013-08-21 06:16:00,
2013-08-21 00:21:00,71.7,48.0,30.10,SE,136,0.0,0.0,43,0.00,-RA,OVC,0.00,WeatherDisplay:10.37,2013-08-21 06:21:00,
2013-08-21 00:26:00,71.2,48.8,30.10,SE,136,0.0,0.0,45,0.00,-RA,OVC,0.00,WeatherDisplay:10.37,2013-08-21 06:26:00,
2013-08-21 00:31:00,70.7,48.3,30.10,SE,136,0.0,0.0,45,0.00,-RA,OVC,0.00,WeatherDisplay:10.37,2013-08-21 06:31:00,
2013-08-21 00:36:00,70.3,48.5,30.10,SE,136,0.0,0.0,46,0.00,-RA,OVC,0.00,WeatherDisplay:10.37,2013-08-21 06:36:00,
2013-08-21 00:41:00,70.0,50.0,30.10,SE,136,0.0,0.0,49,0.00,-RA,OVC,0.00,WeatherDisplay:10.37,2013-08-21 06:41:00,
2013-08-21 00:46:00,69.8,49.8,30.10,SE,136,0.0,0.0,49,0.00,-RA,OVC,0.00,WeatherDisplay:10.37,2013-08-21 06:46:00,
2013-08-21 00:51:00,69.7,50.2,30.10,SE,136,0.0,0.0,50,0.00,-RA,OVC,0.00,WeatherDisplay:10.37,2013-08-21 06:51:00,
2013-08-21 00:56:00,69.5,50.0,30.09,SE,136,0.0,0.0,50,0.00,-RA,OVC,0.00,WeatherDisplay:10.37,2013-08-21 06:56:00,
2013-08-21 01:01:00,69.3,50.4,30.09,SE,136,0.0,0.0,51,0.00,-RA,OVC,0.00,WeatherDisplay:10.37,2013-08-21 07:01:00,
2013-08-21 01:06:00,69.2,50.8,30.09,SE,136,0.0,0.0,52,0.00,-RA,OVC,0.00,WeatherDisplay:10.37,2013-08-21 07:06:00,
2013-08-21 01:11:00,69.1,49.7,30.09,SE,136,0.0,0.0,50,0.00,-RA,OVC,0.00,WeatherDisplay:10.37,2013-08-21 07:11:00,
2013-08-21 01:16:00,69.1,49.7,30.09,SE,136,0.0,0.0,50,0.00,-RA,OVC,0.00,WeatherDisplay:10.37,2013-08-21 07:16:00,
2013-08-21 01:21:00,69.2,50.3,30.09,SE,136,0.0,0.0,51,0.00,-RA,OVC,0.00,WeatherDisplay:10.37,2013-08-21 07:21:00,
2013-08-21 01:26:00,69.2,49.8,30.09,SE,136,0.0,0.0,50,0.00,-RA,OVC,0.00,WeatherDisplay:10.37,2013-08-21 07:26:00,
2013-08-21 01:31:00,69.1,50.2,30.09,SE,136,0.0,0.0,51,0.00,-RA,OVC,0.00,WeatherDisplay:10.37,2013-08-21 07:31:00,
2013-08-21 01:36:00,68.9,49.5,30.09,SE,136,0.0,0.0,50,0.00,-RA,OVC,0.00,WeatherDisplay:10.37,2013-08-21 07:36:00,
2013-08-21 01:41:00,68.7,49.3,30.09,SE,136,0.0,0.0,50,0.00,-RA,OVC,0.00,WeatherDisplay:10.37,2013-08-21 07:41:00,
2013-08-21 01:46:00,68.6,50.3,30.09,SE,136,0.0,0.0,52,0.00,-RA,OVC,0.00,WeatherDisplay:10.37,2013-08-21 07:46:00,
2013-08-21 01:51:00,68.6,49.7,30.09,SE,136,0.0,0.0,51,0.00,-RA,OVC,0.00,WeatherDisplay:10.37,2013-08-21 07:51:00,
2013-08-21 01:56:00,68.5,49.7,30.09,SE,136,0.0,0.0,51,0.00,-RA,OVC,0.00,WeatherDisplay:10.37,2013-08-21 07:56:00,
2013-08-21 02:01:00,68.4,50.1,30.09,SE,136,0.0,0.0,52,0.00,-RA,OVC,0.00,WeatherDisplay:10.37,2013-08-21 08:01:00,
2013-08-21 02:06:00,68.5,50.7,30.09,SE,136,0.0,0.0,53,0.00,-RA,OVC,0.00,WeatherDisplay:10.37,2013-08-21 08:06:00,
2013-08-21 02:11:00,68.5,50.7,30.09,SE,136,0.0,0.0,53,0.00,-RA,OVC,0.00,WeatherDisplay:10.37,2013-08-21 08:11:00,
2013-08-21 02:16:00,68.5,49.7,30.09,SE,136,0.0,0.0,51,0.00,-RA,OVC,0.00,WeatherDisplay:10.37,2013-08-21 08:16:00,
2013-08-21 02:21:00,68.6,49.2,30.09,SE,136,2.3,2.3,50,0.00,-RA,OVC,0.00,WeatherDisplay:10.37,2013-08-21 08:21:00,
2013-08-21 02:26:00,68.9,47.3,30.09,SE,136,1.1,0.0,46,0.00,-RA,OVC,0.00,WeatherDisplay:10.37,2013-08-21 08:26:00,
2013-08-21 02:31:00,69.4,45.9,30.09,SE,136,3.5,3.5,43,0.00,-RA,OVC,0.00,WeatherDisplay:10.37,2013-08-21 08:31:00,
2013-08-21 02:36:00,69.8,45.7,30.09,SE,136,0.0,0.0,42,0.00,-RA,OVC,0.00,WeatherDisplay:10.37,2013-08-21 08:36:00,
2013-08-21 02:41:00,70.1,45.9,30.09,SE,136,1.1,0.0,42,0.00,-RA,OVC,0.00,WeatherDisplay:10.37,2013-08-21 08:41:00,
2013-08-21 02:46:00,70.5,46.3,30.09,SE,136,0.0,0.0,42,0.00,-RA,OVC,0.00,WeatherDisplay:10.37,2013-08-21 08:46:00,
2013-08-21 02:51:00,70.6,46.4,30.09,SE,136,0.0,0.0,42,0.00,-RA,OVC,0.00,WeatherDisplay:10.37,2013-08-21 08:51:00,
2013-08-21 02:56:00,70.6,45.1,30.10,SE,135,3.5,3.5,40,0.00,-RA,OVC,0.00,WeatherDisplay:10.37,2013-08-21 08:56:00,
2013-08-21 03:01:00,71.2,45.0,30.10,SE,136,0.0,0.0,39,0.00,-RA,OVC,0.00,WeatherDisplay:10.37,2013-08-21 09:01:00,
2013-08-21 03:06:00,71.4,45.1,30.10,SE,136,0.0,0.0,39,0.00,-RA,OVC,0.00,WeatherDisplay:10.37,2013-08-21 09:06:00,
2013-08-21 03:11:00,71.3,45.7,30.10,SE,136,0.0,0.0,40,0.00,-RA,OVC,0.00,WeatherDisplay:10.37,2013-08-21 09:11:00,
2013-08-21 03:16:00,71.2,45.6,30.09,SE,136,0.0,0.3,40,0.00,-RA,OVC,0.00,WeatherDisplay:10.37,2013-08-21 09:16:00,
2013-08-21 03:21:00,71.0,46.7,30.09,SE,136,0.0,0.0,42,0.00,-RA,OVC,0.00,WeatherDisplay:10.37,2013-08-21 09:21:00,
2013-08-21 03:26:00,70.5,46.3,30.09,SE,136,0.0,0.0,42,0.00,-RA,OVC,0.00,WeatherDisplay:10.37,2013-08-21 09:26:00,
2013-08-21 03:31:00,70.0,46.5,30.10,SE,136,0.0,0.0,43,0.00,-RA,OVC,0.00,WeatherDisplay:10.37,2013-08-21 09:31:00,
2013-08-21 03:36:00,69.5,47.2,30.10,SE,135,0.0,0.0,45,0.00,-RA,OVC,0.00,WeatherDisplay:10.37,2013-08-21 09:36:00,
2013-08-21 03:41:00,69.1,46.3,30.10,SE,136,0.0,0.0,44,0.00,-RA,OVC,0.00,WeatherDisplay:10.37,2013-08-21 09:41:00,
2013-08-21 03:46:00,68.7,47.1,30.10,SE,136,0.0,0.0,46,0.00,-RA,OVC,0.00,WeatherDisplay:10.37,2013-08-21 09:46:00,
2013-08-21 03:51:00,68.4,47.4,30.10,SE,136,0.0,0.0,47,0.00,-RA,OVC,0.00,WeatherDisplay:10.37,2013-08-21 09:51:00,
2013-08-21 03:56:00,68.1,47.1,30.10,SE,136,0.0,0.0,47,0.00,-RA,OVC,0.00,WeatherDisplay:10.37,2013-08-21 09:56:00,
2013-08-21 04:01:00,67.8,46.8,30.10,SE,136,0.0,0.0,47,0.00,-RA,OVC,0.00,WeatherDisplay:10.37,2013-08-21 10:01:00,
2013-08-21 04:06:00,67.7,47.8,30.10,SE,136,0.0,0.0,49,0.00,-RA,OVC,0.00,WeatherDisplay:10.37,2013-08-21 10:06:00,
2013-08-21 04:11:00,67.5,48.2,30.10,SE,136,0.0,0.0,50,0.00,-RA,OVC,0.00,WeatherDisplay:10.37,2013-08-21 10:11:00,
2013-08-21 04:16:00,67.4,49.2,30.10,SE,136,0.0,0.0,52,0.00,-RA,OVC,0.00,WeatherDisplay:10.37,2013-08-21 10:16:00,
2013-08-21 04:21:00,67.3,49.6,30.10,SE,136,0.0,0.0,53,0.00,-RA,OVC,0.00,WeatherDisplay:10.37,2013-08-21 10:21:00,
2013-08-21 04:26:00,67.2,50.0,30.10,SE,136,0.0,0.0,54,0.00,-RA,OVC,0.00,WeatherDisplay:10.37,2013-08-21 10:26:00,
2013-08-21 04:31:00,67.2,50.5,30.10,SE,136,0.0,0.0,55,0.00,-RA,OVC,0.00,WeatherDisplay:10.37,2013-08-21 10:31:00,
2013-08-21 04:36:00,67.1,50.4,30.11,SE,136,0.0,0.0,55,0.00,-RA,OVC,0.00,WeatherDisplay:10.37,2013-08-21 10:36:00,
2013-08-21 04:41:00,67.1,50.9,30.11,SE,136,0.0,0.0,56,0.00,-RA,OVC,0.00,WeatherDisplay:10.37,2013-08-21 10:41:00,
2013-08-21 04:46:00,67.1,50.4,30.11,SE,136,0.0,0.0,55,0.00,-RA,OVC,0.00,WeatherDisplay:10.37,2013-08-21 10:46:00,
2013-08-21 04:51:00,67.2,50.5,30.11,SE,136,0.0,0.0,55,0.00,-RA,OVC,0.00,WeatherDisplay:10.37,2013-08-21 10:51:00,
2013-08-21 04:56:00,67.2,50.5,30.11,SE,136,0.0,0.0,55,0.00,-RA,OVC,0.00,WeatherDisplay:10.37,2013-08-21 10:56:00,
2013-08-21 05:01:00,67.2,51.4,30.11,SE,135,0.0,0.0,57,0.00,-RA,OVC,0.00,WeatherDisplay:10.37,2013-08-21 11:01:00,
2013-08-21 05:06:00,67.1,50.9,30.11,SE,136,0.0,0.0,56,0.00,-RA,OVC,0.00,WeatherDisplay:10.37,2013-08-21 11:06:00,
2013-08-21 05:11:00,67.1,50.9,30.11,SE,136,0.0,0.0,56,0.00,-RA,OVC,0.00,WeatherDisplay:10.37,2013-08-21 11:11:00,
2013-08-21 05:16:00,67.1,51.4,30.11,SE,136,0.0,0.0,57,0.00,-RA,OVC,0.00,WeatherDisplay:10.37,2013-08-21 11:16:00,
2013-08-21 05:21:00,67.1,51.4,30.11,SE,136,0.0,0.0,57,0.00,-RA,OVC,0.00,WeatherDisplay:10.37,2013-08-21 11:21:00,
2013-08-21 05:26:00,67.0,50.3,30.11,SE,136,0.0,0.0,55,0.00,-RA,OVC,0.00,WeatherDisplay:10.37,2013-08-21 11:26:00,
2013-08-21 05:31:00,67.0,51.3,30.11,SE,136,0.0,0.0,57,0.00,-RA,OVC,0.00,WeatherDisplay:10.37,2013-08-21 11:31:00,
2013-08-21 05:36:00,66.8,50.6,30.11,SE,135,0.0,0.0,56,0.00,-RA,OVC,0.00,WeatherDisplay:10.37,2013-08-21 11:36:00,
2013-08-21 05:41:00,66.8,51.5,30.11,SE,136,0.0,0.1,58,0.00,-RA,OVC,0.00,WeatherDisplay:10.37,2013-08-21 11:41:00,
2013-08-21 05:46:00,66.6,51.4,30.11,SE,136,0.0,0.0,58,0.00,-RA,OVC,0.00,WeatherDisplay:10.37,2013-08-21 11:46:00,
2013-08-21 05:51:00,66.5,51.3,30.11,SE,136,0.0,0.0,58,0.00,-RA,OVC,0.00,WeatherDisplay:10.37,2013-08-21 11:51:00,
2013-08-21 05:56:00,66.4,51.6,30.11,SE,136,0.0,0.0,59,0.00,-RA,OVC,0.00,WeatherDisplay:10.37,2013-08-21 11:56:00,
2013-08-21 06:01:00,66.4,51.6,30.11,SE,136,0.0,0.0,59,0.00,-RA,OVC,0.00,WeatherDisplay:10.37,2013-08-21 12:01:00,
2013-08-21 06:06:00,66.3,52.0,30.11,SE,136,1.1,1.1,60,0.00,-RA,OVC,0.00,WeatherDisplay:10.37,2013-08-21 12:06:00,
2013-08-21 06:11:00,66.3,52.0,30.11,SE,136,1.1,1.1,60,0.00,-RA,OVC,0.00,WeatherDisplay:10.37,2013-08-21 12:11:00,
2013-08-21 06:16:00,66.3,52.4,30.11,SE,135,0.0,0.0,61,0.00,-RA,OVC,0.00,WeatherDisplay:10.37,2013-08-21 12:16:00,
2013-08-21 06:21:00,66.1,52.3,30.11,SE,135,0.0,0.0,61,0.00,-RA,OVC,0.00,WeatherDisplay:10.37,2013-08-21 12:21:00,
2013-08-21 06:26:00,65.9,52.1,30.11,SE,136,0.0,0.0,61,0.00,-RA,OVC,0.00,WeatherDisplay:10.37,2013-08-21 12:26:00,
2013-08-21 06:31:00,65.7,52.3,30.11,SE,136,1.1,0.0,62,0.00,-RA,OVC,0.00,WeatherDisplay:10.37,2013-08-21 12:31:00,
2013-08-21 06:36:00,65.4,52.5,30.11,SE,136,0.0,0.0,63,0.00,-RA,OVC,0.00,WeatherDisplay:10.37,2013-08-21 12:36:00,
2013-08-21 06:41:00,65.2,52.3,30.11,SE,136,2.3,2.3,63,0.78,-RA,OVC,0.78,WeatherDisplay:10.37,2013-08-21 12:41:00,
2013-08-21 06:46:00,65.0,52.1,30.11,SE,136,0.0,0.0,63,0.78,-RA,OVC,0.78,WeatherDisplay:10.37,2013-08-21 12:46:00,
2013-08-21 06:51:00,64.8,51.9,30.11,SE,136,0.0,0.0,63,0.78,-RA,OVC,0.78,WeatherDisplay:10.37,2013-08-21 12:51:00,
2013-08-21 06:56:00,64.6,51.7,30.13,SE,136,0.0,0.0,63,0.78,-RA,OVC,0.78,WeatherDisplay:10.37,2013-08-21 12:56:00,
2013-08-21 07:01:00,64.5,52.0,30.13,SE,136,2.0,2.0,64,0.78,-RA,OVC,0.78,WeatherDisplay:10.37,2013-08-21 13:01:00,
2013-08-21 07:06:00,64.4,52.0,30.13,SE,136,0.0,0.0,64,0.78,-RA,OVC,0.78,WeatherDisplay:10.37,2013-08-21 13:06:00,
2013-08-21 07:11:00,64.3,51.9,30.13,SE,136,0.0,0.0,64,0.78,-RA,OVC,0.78,WeatherDisplay:10.37,2013-08-21 13:11:00,
2013-08-21 07:16:00,64.2,52.2,30.13,SE,136,0.0,0.0,65,0.78,-RA,OVC,0.78,WeatherDisplay:10.37,2013-08-21 13:16:00,
2013-08-21 07:21:00,64.2,52.2,30.13,SE,135,0.0,0.0,65,0.78,-RA,OVC,0.78,WeatherDisplay:10.37,2013-08-21 13:21:00,
2013-08-21 07:26:00,64.3,51.9,30.13,SE,136,0.0,0.0,64,0.78,-RA,OVC,0.78,WeatherDisplay:10.37,2013-08-21 13:26:00,
2013-08-21 07:31:00,64.5,52.9,30.13,SE,136,1.1,1.1,66,0.78,-RA,OVC,0.78,WeatherDisplay:10.37,2013-08-21 13:31:00,
2013-08-21 07:36:00,64.7,53.1,30.13,SE,136,0.0,0.0,66,0.78,-RA,OVC,0.78,WeatherDisplay:10.37,2013-08-21 13:36:00,
2013-08-21 07:41:00,64.8,52.3,30.13,SE,136,0.0,0.0,64,0.00,-RA,OVC,0.78,WeatherDisplay:10.37,2013-08-21 13:41:00,
2013-08-21 07:46:00,65.2,52.7,30.13,SE,135,0.0,0.0,64,0.00,-RA,OVC,0.78,WeatherDisplay:10.37,2013-08-21 13:46:00,
2013-08-21 07:51:00,65.6,53.5,30.13,SE,135,0.0,0.0,65,0.00,-RA,OVC,0.78,WeatherDisplay:10.37,2013-08-21 13:51:00,
2013-08-21 07:56:00,66.3,52.9,30.13,SE,135,0.0,0.0,62,0.00,-RA,OVC,0.78,WeatherDisplay:10.37,2013-08-21 13:56:00,
2013-08-21 08:01:00,67.3,53.8,30.13,SE,136,0.0,0.0,62,0.00,-RA,OVC,0.78,WeatherDisplay:10.37,2013-08-21 14:01:00,
2013-08-21 08:06:00,68.1,53.7,30.13,SE,135,0.0,0.0,60,0.00,-RA,OVC,0.78,WeatherDisplay:10.37,2013-08-21 14:06:00,
2013-08-21 08:11:00,68.9,54.9,30.13,SE,135,0.0,0.1,61,0.00,-RA,OVC,0.78,WeatherDisplay:10.37,2013-08-21 14:11:00,
2013-08-21 08:16:00,69.6,55.1,30.13,SE,135,0.0,0.0,60,0.00,-RA,OVC,0.78,WeatherDisplay:10.37,2013-08-21 14:16:00,
2013-08-21 08:21:00,70.3,54.8,30.13,SE,135,0.0,0.0,58,0.00,-RA,OVC,0.78,WeatherDisplay:10.37,2013-08-21 14:21:00,
2013-08-21 08:26:00,71.0,54.0,30.13,SE,135,0.0,0.0,55,0.00,-RA,OVC,0.78,WeatherDisplay:10.37,2013-08-21 14:26:00,
2013-08-21 08:31:00,71.9,54.3,30.13,SE,136,0.0,0.0,54,0.00,-RA,OVC,0.78,WeatherDisplay:10.37,2013-08-21 14:31:00,
2013-08-21 08:36:00,72.7,57.1,30.13,SE,135,0.0,0.0,58,0.00,-RA,OVC,0.78,WeatherDisplay:10.37,2013-08-21 14:36:00,
2013-08-21 08:41:00,73.3,56.7,30.16,SE,135,0.0,0.0,56,0.00,-RA,OVC,0.78,WeatherDisplay:10.37,2013-08-21 14:41:00,
2013-08-21 08:46:00,73.8,57.1,30.16,SE,135,0.0,0.0,56,0.00,-RA,OVC,0.78,WeatherDisplay:10.37,2013-08-21 14:46:00,
2013-08-21 08:51:00,74.2,57.0,30.16,SE,136,0.0,0.0,55,0.00,-RA,OVC,0.78,WeatherDisplay:10.37,2013-08-21 14:51:00,
2013-08-21 08:56:00,74.5,54.6,30.16,SE,136,0.0,0.0,50,0.00,-RA,OVC,0.78,WeatherDisplay:10.37,2013-08-21 14:56:00,
2013-08-21 09:01:00,75.0,55.6,30.16,SE,136,1.1,0.0,51,0.00,-RA,OVC,0.78,WeatherDisplay:10.37,2013-08-21 15:01:00,
2013-08-21 09:06:00,75.9,55.4,30.16,SE,136,2.3,2.3,49,0.00,-RA,OVC,0.78,WeatherDisplay:10.37,2013-08-21 15:06:00,
2013-08-21 09:11:00,77.0,55.8,30.16,SE,136,1.1,1.1,48,0.00,-RA,OVC,0.78,WeatherDisplay:10.37,2013-08-21 15:11:00,
2013-08-21 09:16:00,77.6,55.2,30.16,ESE,110,0.0,0.0,46,0.00,-RA,OVC,0.78,WeatherDisplay:10.37,2013-08-21 15:16:00,
2013-08-21 09:21:00,78.1,53.8,30.16,East,86,1.1,1.1,43,0.00,-RA,OVC,0.78,WeatherDisplay:10.37,2013-08-21 15:21:00,
2013-08-21 09:26:00,78.4,53.4,30.16,East,84,1.1,1.1,42,0.00,-RA,OVC,0.78,WeatherDisplay:10.37,2013-08-21 15:26:00,
2013-08-21 09:31:00,78.7,52.3,30.16,East,80,2.3,2.3,40,0.00,-RA,OVC,0.78,WeatherDisplay:10.37,2013-08-21 15:31:00,
2013-08-21 09:36:00,79.0,53.3,30.16,ENE,62,3.5,3.5,41,0.00,-RA,OVC,0.78,WeatherDisplay:10.37,2013-08-21 15:36:00,
2013-08-21 09:41:00,79.3,52.2,30.16,NNE,30,5.0,5.0,39,0.00,-RA,OVC,0.78,WeatherDisplay:10.37,2013-08-21 15:41:00,
2013-08-21 09:46:00,79.3,52.9,30.16,NNE,30,0.0,0.0,40,0.00,-RA,OVC,0.78,WeatherDisplay:10.37,2013-08-21 15:46:00,
2013-08-21 09:51:00,79.8,54.7,30.16,NNE,30,0.0,0.0,42,0.00,-RA,OVC,0.78,WeatherDisplay:10.37,2013-08-21 15:51:00,
2013-08-21 09:56:00,80.4,51.7,30.16,NNE,24,3.5,3.5,37,0.00,-RA,OVC,0.78,WeatherDisplay:10.37,2013-08-21 15:56:00,
2013-08-21 10:01:00,80.9,52.9,30.16,NNE,24,1.1,1.1,38,0.00,-RA,OVC,0.78,WeatherDisplay:10.37,2013-08-21 16:01:00,
2013-08-21 10:06:00,81.2,50.9,30.16,NNE,24,3.5,3.5,35,0.00,-RA,OVC,0.78,WeatherDisplay:10.37,2013-08-21 16:06:00,
2013-08-21 10:11:00,81.1,50.1,30.16,NNE,21,3.5,3.5,34,0.00,-RA,OVC,0.78,WeatherDisplay:10.37,2013-08-21 16:11:00,
2013-08-21 10:16:00,81.0,50.8,30.16,NNE,21,1.1,0.0,35,0.00,-RA,OVC,0.78,WeatherDisplay:10.37,2013-08-21 16:16:00,
2013-08-21 10:21:00,81.4,51.1,30.16,North,360,2.3,2.3,35,0.00,-RA,OVC,0.78,WeatherDisplay:10.37,2013-08-21 16:21:00,
2013-08-21 10:26:00,82.3,51.9,30.16,North,355,4.0,4.0,35,0.00,-RA,OVC,0.78,WeatherDisplay:10.37,2013-08-21 16:26:00,
2013-08-21 10:31:00,82.8,51.6,30.16,North,5,3.5,3.5,34,0.00,-RA,OVC,0.78,WeatherDisplay:10.37,2013-08-21 16:31:00,
2013-08-21 10:36:00,83.0,51.7,30.16,North,9,3.5,3.5,34,0.00,-RA,OVC,0.78,WeatherDisplay:10.37,2013-08-21 16:36:00,
2013-08-21 10:41:00,83.1,52.6,30.16,North,11,4.6,4.6,35,0.00,-RA,OVC,0.78,WeatherDisplay:10.37,2013-08-21 16:41:00,
2013-08-21 10:46:00,83.4,51.3,30.16,North,11,0.0,0.2,33,0.00,-RA,OVC,0.78,WeatherDisplay:10.37,2013-08-21 16:46:00,
2013-08-21 10:51:00,84.0,52.6,30.16,West,273,2.3,2.3,34,0.00,-RA,OVC,0.78,WeatherDisplay:10.37,2013-08-21 16:51:00,
2013-08-21 10:56:00,84.7,50.7,30.16,North,10,4.6,4.6,31,0.00,-RA,OVC,0.78,WeatherDisplay:10.37,2013-08-21 16:56:00,
2013-08-21 11:01:00,85.2,52.0,30.16,NE,40,4.6,4.6,32,0.00,-RA,OVC,0.78,WeatherDisplay:10.37,2013-08-21 17:01:00,
2013-08-21 11:06:00,85.3,49.4,30.16,NNW,330,2.3,2.9,29,0.00,-RA,OVC,0.78,WeatherDisplay:10.37,2013-08-21 17:06:00,
2013-08-21 11:11:00,84.9,49.1,30.16,NNE,32,3.5,3.5,29,0.00,-RA,OVC,0.78,WeatherDisplay:10.37,2013-08-21 17:11:00,
2013-08-21 11:16:00,85.0,51.0,30.16,West,268,5.8,5.8,31,0.00,-RA,OVC,0.78,WeatherDisplay:10.37,2013-08-21 17:16:00,
2013-08-21 11:21:00,85.4,52.2,30.16,WNW,292,3.5,3.5,32,0.00,-RA,OVC,0.78,WeatherDisplay:10.37,2013-08-21 17:21:00,
2013-08-21 11:26:00,86.1,50.1,30.16,West,264,0.0,0.0,29,0.00,-RA,OVC,0.78,WeatherDisplay:10.37,2013-08-21 17:26:00,
2013-08-21 11:31:00,86.6,49.6,30.16,NNW,331,3.5,3.5,28,0.00,-RA,OVC,0.78,WeatherDisplay:10.37,2013-08-21 17:31:00,
2013-08-21 11:36:00,86.6,50.6,30.16,NNW,337,2.3,2.3,29,0.00,-RA,OVC,0.78,WeatherDisplay:10.37,2013-08-21 17:36:00,
2013-08-21 11:41:00,86.8,50.7,30.16,NNE,15,3.5,3.5,29,0.00,-RA,OVC,0.78,WeatherDisplay:10.37,2013-08-21 17:41:00,
2013-08-21 11:46:00,86.8,51.6,30.16,NNW,327,6.9,6.9,30,0.00,-RA,OVC,0.78,WeatherDisplay:10.37,2013-08-21 17:46:00,
2013-08-21 11:51:00,86.7,51.6,30.16,NW,324,5.8,5.8,30,0.00,-RA,OVC,0.78,WeatherDisplay:10.37,2013-08-21 17:51:00,
2013-08-21 11:56:00,86.5,51.4,30.16,North,355,3.5,3.5,30,0.00,-RA,OVC,0.78,WeatherDisplay:10.37,2013-08-21 17:56:00,
2013-08-21 12:01:00,86.4,52.2,30.16,NNW,336,6.9,6.9,31,0.00,-RA,OVC,0.78,WeatherDisplay:10.37,2013-08-21 18:01:00,
2013-08-21 12:06:00,86.3,50.3,30.16,NW,325,5.8,5.8,29,0.00,-RA,OVC,0.78,WeatherDisplay:10.37,2013-08-21 18:06:00,
2013-08-21 12:11:00,86.4,50.4,30.16,NNW,341,2.3,2.3,29,0.00,-RA,OVC,0.78,WeatherDisplay:10.37,2013-08-21 18:11:00,
2013-08-21 12:16:00,86.6,52.4,30.16,West,261,3.5,3.5,31,0.00,-RA,OVC,0.78,WeatherDisplay:10.37,2013-08-21 18:16:00,
2013-08-21 12:21:00,87.1,51.0,30.16,West,263,2.3,2.3,29,0.00,-RA,OVC,0.78,WeatherDisplay:10.37,2013-08-21 18:21:00,
2013-08-21 12:26:00,87.8,52.5,30.16,West,265,6.9,6.9,30,0.00,-RA,OVC,0.78,WeatherDisplay:10.37,2013-08-21 18:26:00,
2013-08-21 12:31:00,88.0,51.8,30.16,WNW,285,1.1,1.1,29,0.00,-RA,OVC,0.78,WeatherDisplay:10.37,2013-08-21 18:31:00,
2013-08-21 12:36:00,88.3,51.1,30.16,WNW,288,3.5,3.5,28,0.00,-RA,OVC,0.78,WeatherDisplay:10.37,2013-08-21 18:36:00,
2013-08-21 12:41:00,88.0,51.8,30.16,WSW,257,4.6,4.6,29,0.00,-RA,OVC,0.78,WeatherDisplay:10.37,2013-08-21 18:41:00,
2013-08-21 12:46:00,87.8,49.7,30.16,West,262,6.9,6.9,27,0.00,-RA,OVC,0.78,WeatherDisplay:10.37,2013-08-21 18:46:00,
2013-08-21 12:51:00,87.8,50.6,30.16,West,281,3.5,3.5,28,0.00,-RA,OVC,0.78,WeatherDisplay:10.37,2013-08-21 18:51:00,
2013-08-21 12:56:00,88.2,50.0,30.16,North,5,3.5,3.5,27,0.00,-RA,OVC,0.78,WeatherDisplay:10.37,2013-08-21 18:56:00,
2013-08-21 13:01:00,88.2,51.9,30.16,North,360,1.1,0.0,29,0.00,-RA,OVC,0.78,WeatherDisplay:10.37,2013-08-21 19:01:00,
2013-08-21 13:06:00,88.2,51.0,30.13,West,264,4.0,4.0,28,0.00,-RA,OVC,0.78,WeatherDisplay:10.37,2013-08-21 19:06:00,
2013-08-21 13:11:00,88.2,51.0,30.13,West,266,3.5,3.5,28,0.00,-RA,OVC,0.78,WeatherDisplay:10.37,2013-08-21 19:11:00,
2013-08-21 13:16:00,88.8,49.5,30.13,WSW,258,2.3,2.3,26,0.00,-RA,OVC,0.78,WeatherDisplay:10.37,2013-08-21 19:16:00,
2013-08-21 13:21:00,89.5,50.1,30.13,WSW,241,3.5,3.5,26,0.00,-RA,OVC,0.78,WeatherDisplay:10.37,2013-08-21 19:21:00,
2013-08-21 13:26:00,89.6,50.2,30.13,West,270,2.3,2.3,26,0.00,-RA,OVC,0.78,WeatherDisplay:10.37,2013-08-21 19:26:00,
2013-08-21 13:31:00,89.6,51.2,30.13,South,185,3.5,3.5,27,0.00,-RA,OVC,0.78,WeatherDisplay:10.37,2013-08-21 19:31:00,
2013-08-21 13:36:00,89.2,51.8,30.13,South,188,2.3,2.3,28,0.00,-RA,OVC,0.78,WeatherDisplay:10.37,2013-08-21 19:36:00,
2013-08-21 13:41:00,89.2,50.8,30.13,West,269,4.6,4.6,27,0.00,-RA,OVC,0.78,WeatherDisplay:10.37,2013-08-21 19:41:00,
2013-08-21 13:46:00,89.0,49.7,30.13,West,269,1.1,0.0,26,0.00,-RA,OVC,0.78,WeatherDisplay:10.37,2013-08-21 19:46:00,
2013-08-21 13:51:00,88.5,51.2,30.13,NNW,348,3.0,3.0,28,0.00,-RA,OVC,0.78,WeatherDisplay:10.37,2013-08-21 19:51:00,
2013-08-21 13:56:00,88.0,50.8,30.13,NW,305,4.6,0.0,28,0.00,-RA,OVC,0.78,WeatherDisplay:10.37,2013-08-21 19:56:00,
2013-08-21 14:01:00,87.5,51.3,30.13,NW,308,1.1,0.0,29,0.00,-RA,OVC,0.78,WeatherDisplay:10.37,2013-08-21 20:01:00,
2013-08-21 14:06:00,87.2,51.1,30.13,WNW,300,0.0,0.1,29,0.00,-RA,OVC,0.78,WeatherDisplay:10.37,2013-08-21 20:06:00,
2013-08-21 14:11:00,87.0,50.9,30.13,WNW,300,0.0,0.0,29,0.00,-RA,OVC,0.78,WeatherDisplay:10.37,2013-08-21 20:11:00,
2013-08-21 14:16:00,86.9,50.8,30.13,WNW,300,0.0,0.0,29,0.00,-RA,OVC,0.78,WeatherDisplay:10.37,2013-08-21 20:16:00,
2013-08-21 14:21:00,87.0,50.0,30.13,WNW,297,1.1,1.1,28,0.00,-RA,OVC,0.78,WeatherDisplay:10.37,2013-08-21 20:21:00,
2013-08-21 14:26:00,87.5,51.3,30.13,WNW,284,1.1,1.1,29,0.00,-RA,OVC,0.78,WeatherDisplay:10.37,2013-08-21 20:26:00,
2013-08-21 14:31:00,87.5,50.4,30.13,WNW,283,1.1,1.1,28,0.00,-RA,OVC,0.78,WeatherDisplay:10.37,2013-08-21 20:31:00,
2013-08-21 14:36:00,88.0,53.6,30.13,WNW,282,1.1,0.0,31,0.00,-RA,OVC,0.78,WeatherDisplay:10.37,2013-08-21 20:36:00,
2013-08-21 14:41:00,88.2,51.0,30.13,WNW,291,2.3,2.3,28,0.00,-RA,OVC,0.78,WeatherDisplay:10.37,2013-08-21 20:41:00,
2013-08-21 14:46:00,88.2,51.9,30.13,WNW,291,0.0,0.0,29,0.00,-RA,OVC,0.78,WeatherDisplay:10.37,2013-08-21 20:46:00,
2013-08-21 14:51:00,88.4,53.0,30.13,WNW,291,1.1,0.0,30,0.00,-RA,OVC,0.78,WeatherDisplay:10.37,2013-08-21 20:51:00,
2013-08-21 14:56:00,88.8,51.5,30.13,WNW,291,1.1,1.1,28,0.00,-RA,OVC,0.78,WeatherDisplay:10.37,2013-08-21 20:56:00,
2013-08-21 15:01:00,88.9,49.6,30.13,WNW,291,1.1,1.1,26,0.00,-RA,OVC,0.78,WeatherDisplay:10.37,2013-08-21 21:01:00,
2013-08-21 15:06:00,89.1,51.7,30.13,WNW,291,1.1,0.0,28,0.00,-RA,OVC,0.78,WeatherDisplay:10.37,2013-08-21 21:06:00,
2013-08-21 15:11:00,89.6,54.1,30.13,WNW,291,1.1,1.1,30,0.00,-RA,OVC,0.78,WeatherDisplay:10.37,2013-08-21 21:11:00,
2013-08-21 15:16:00,90.2,51.7,30.13,WNW,291,3.5,3.5,27,0.00,-RA,OVC,0.78,WeatherDisplay:10.37,2013-08-21 21:16:00,
2013-08-21 15:21:00,90.3,51.8,30.13,NW,320,3.5,3.5,27,0.00,-RA,OVC,0.78,WeatherDisplay:10.37,2013-08-21 21:21:00,
2013-08-21 15:26:00,90.2,52.7,30.11,NE,38,1.1,1.1,28,0.00,-RA,OVC,0.78,WeatherDisplay:10.37,2013-08-21 21:26:00,
2013-08-21 15:31:00,90.2,50.7,30.11,North,360,4.6,4.6,26,0.00,-RA,OVC,0.78,WeatherDisplay:10.37,2013-08-21 21:31:00,
2013-08-21 15:36:00,90.4,50.8,30.11,North,360,3.5,3.5,26,0.00,-RA,OVC,0.78,WeatherDisplay:10.37,2013-08-21 21:36:00,
2013-08-21 15:41:00,90.2,50.7,30.11,NNW,338,4.6,4.6,26,0.00,-RA,OVC,0.78,WeatherDisplay:10.37,2013-08-21 21:41:00,
2013-08-21 15:46:00,90.3,50.8,30.11,NNW,338,2.3,2.3,26,0.00,-RA,OVC,0.78,WeatherDisplay:10.37,2013-08-21 21:46:00,
2013-08-21 15:51:00,90.3,50.8,30.11,North,350,3.5,3.5,26,0.00,-RA,OVC,0.78,WeatherDisplay:10.37,2013-08-21 21:51:00,
2013-08-21 15:56:00,90.4,52.9,30.11,NNW,346,3.5,3.5,28,0.00,-RA,OVC,0.78,WeatherDisplay:10.37,2013-08-21 21:56:00,
2013-08-21 16:01:00,90.5,50.9,30.11,North,360,3.5,3.5,26,0.00,-RA,OVC,0.78,WeatherDisplay:10.37,2013-08-21 22:01:00,
2013-08-21 16:06:00,90.7,50.0,30.11,NNW,327,4.6,4.6,25,0.00,-RA,OVC,0.78,WeatherDisplay:10.37,2013-08-21 22:06:00,
2013-08-21 16:11:00,90.6,51.0,30.11,NNW,344,3.5,3.5,26,0.00,-RA,OVC,0.78,WeatherDisplay:10.37,2013-08-21 22:11:00,
2013-08-21 16:16:00,90.8,50.1,30.11,North,5,3.5,3.5,25,0.00,-RA,OVC,0.78,WeatherDisplay:10.37,2013-08-21 22:16:00,
2013-08-21 16:21:00,90.8,50.1,30.11,NNW,343,3.5,3.6,25,0.00,-RA,OVC,0.78,WeatherDisplay:10.37,2013-08-21 22:21:00,
2013-08-21 16:26:00,90.3,50.8,30.11,ENE,64,4.6,4.6,26,0.00,-RA,OVC,0.78,WeatherDisplay:10.37,2013-08-21 22:26:00,
2013-08-21 16:31:00,90.2,49.6,30.11,NE,40,5.8,5.8,25,0.00,-RA,OVC,0.78,WeatherDisplay:10.37,2013-08-21 22:31:00,
2013-08-21 16:36:00,89.7,50.3,30.11,NNE,22,4.6,4.6,26,0.00,-RA,OVC,0.78,WeatherDisplay:10.37,2013-08-21 22:36:00,
2013-08-21 16:41:00,88.7,50.4,30.11,NNE,31,3.5,3.5,27,0.00,-RA,OVC,0.78,WeatherDisplay:10.37,2013-08-21 22:41:00,
2013-08-21 16:46:00,87.6,49.5,30.11,NNE,30,4.6,4.6,27,0.00,-RA,OVC,0.78,WeatherDisplay:10.37,2013-08-21 22:46:00,
2013-08-21 16:51:00,86.9,49.9,30.11,NNE,30,1.0,1.5,28,0.00,-RA,OVC,0.78,WeatherDisplay:10.37,2013-08-21 22:51:00,
2013-08-21 16:56:00,86.4,50.4,30.11,NNE,30,3.5,3.5,29,0.00,-RA,OVC,0.78,WeatherDisplay:10.37,2013-08-21 22:56:00,
2013-08-21 17:01:00,85.9,50.0,30.11,NNE,30,6.9,6.9,29,0.00,-RA,OVC,0.78,WeatherDisplay:10.37,2013-08-21 23:01:00,
2013-08-21 17:06:00,85.6,49.7,30.11,NNE,28,3.5,3.5,29,0.00,-RA,OVC,0.78,WeatherDisplay:10.37,2013-08-21 23:06:00,
2013-08-21 17:11:00,85.4,49.5,30.11,NNE,28,3.5,3.5,29,0.00,-RA,OVC,0.78,WeatherDisplay:10.37,2013-08-21 23:11:00,
2013-08-21 17:16:00,85.3,49.4,30.11,NNE,27,3.5,4.1,29,0.00,-RA,OVC,0.78,WeatherDisplay:10.37,2013-08-21 23:16:00,
2013-08-21 17:21:00,85.1,50.2,30.11,NE,35,6.9,6.9,30,0.00,-RA,OVC,0.78,WeatherDisplay:10.37,2013-08-21 23:21:00,
2013-08-21 17:26:00,84.8,50.8,30.11,NNE,32,6.9,6.9,31,0.00,-RA,OVC,0.78,WeatherDisplay:10.37,2013-08-21 23:26:00,
2013-08-21 17:31:00,84.5,50.5,30.11,NNE,28,9.2,9.2,31,0.00,-RA,OVC,0.78,WeatherDisplay:10.37,2013-08-21 23:31:00,
2013-08-21 17:36:00,84.3,50.4,30.11,NE,38,3.5,3.5,31,0.00,-RA,OVC,0.78,WeatherDisplay:10.37,2013-08-21 23:36:00,
2013-08-21 17:41:00,84.1,50.2,30.11,NNE,29,6.9,6.9,31,0.00,-RA,OVC,0.78,WeatherDisplay:10.37,2013-08-21 23:41:00,
2013-08-21 17:46:00,84.0,51.0,30.11,NNE,31,2.0,2.0,32,0.00,-RA,OVC,0.78,WeatherDisplay:10.37,2013-08-21 23:46:00,
2013-08-21 17:51:00,83.8,51.6,30.11,NE,35,4.0,4.0,33,0.00,-RA,OVC,0.78,WeatherDisplay:10.37,2013-08-21 23:51:00,
2013-08-21 17:56:00,83.6,50.6,30.11,NNE,23,5.8,5.8,32,0.00,-RA,OVC,0.78,WeatherDisplay:10.37,2013-08-21 23:56:00,
2013-08-21 18:01:00,83.4,50.4,30.11,ESE,106,6.9,6.9,32,0.00,-RA,OVC,0.78,WeatherDisplay:10.37,2013-08-22 00:01:00,
2013-08-21 18:06:00,83.2,50.3,30.11,ESE,115,4.6,4.6,32,0.00,-RA,OVC,0.78,WeatherDisplay:10.37,2013-08-22 00:06:00,
2013-08-21 18:11:00,83.0,50.9,30.11,SE,132,5.8,5.8,33,0.00,-RA,OVC,0.78,WeatherDisplay:10.37,2013-08-22 00:11:00,
2013-08-21 18:16:00,82.5,52.1,30.11,ESE,112,14.0,14.0,35,0.00,-RA,OVC,0.78,WeatherDisplay:10.37,2013-08-22 00:16:00,
2013-08-21 18:21:00,80.4,53.2,30.11,East,82,12.7,12.7,39,0.00,-RA,OVC,0.78,WeatherDisplay:10.37,2013-08-22 00:21:00,
2013-08-21 18:26:00,78.0,53.7,30.11,SSE,153,11.5,11.5,43,0.00,-RA,OVC,0.78,WeatherDisplay:10.37,2013-08-22 00:26:00,
2013-08-21 18:31:00,76.6,53.7,30.11,SSW,212,13.8,13.8,45,0.00,-RA,OVC,0.78,WeatherDisplay:10.37,2013-08-22 00:31:00,
2013-08-21 18:36:00,75.8,53.5,30.11,ESE,123,11.5,11.5,46,0.00,-RA,OVC,0.78,WeatherDisplay:10.37,2013-08-22 00:36:00,
2013-08-21 18:41:00,75.3,54.3,30.11,SE,145,6.9,6.9,48,0.00,-RA,OVC,0.78,WeatherDisplay:10.37,2013-08-22 00:41:00,
2013-08-21 18:46:00,74.9,53.9,30.11,SSE,155,4.6,4.6,48,0.00,-RA,OVC,0.78,WeatherDisplay:10.37,2013-08-22 00:46:00,
2013-08-21 18:51:00,74.7,54.3,30.11,SSE,154,1.1,1.1,49,0.00,-RA,OVC,0.78,WeatherDisplay:10.37,2013-08-22 00:51:00,
2013-08-21 18:56:00,74.5,54.6,30.11,South,184,4.6,4.6,50,0.00,-RA,OVC,0.78,WeatherDisplay:10.37,2013-08-22 00:56:00,
2013-08-21 19:01:00,74.3,54.5,30.11,SSW,196,4.6,4.6,50,0.00,-RA,OVC,0.78,WeatherDisplay:10.37,2013-08-22 01:01:00,
2013-08-21 19:06:00,74.1,54.8,30.11,South,190,3.0,3.0,51,0.00,-RA,OVC,0.78,WeatherDisplay:10.37,2013-08-22 01:06:00,
2013-08-21 19:11:00,74.0,54.7,30.11,SSE,167,5.8,5.8,51,0.00,-RA,OVC,0.78,WeatherDisplay:10.37,2013-08-22 01:11:00,
2013-08-21 19:16:00,73.8,54.5,30.11,South,180,2.3,2.3,51,0.00,-RA,OVC,0.78,WeatherDisplay:10.37,2013-08-22 01:16:00,
2013-08-21 19:21:00,73.8,55.1,30.11,South,180,0.0,0.0,52,0.00,-RA,OVC,0.78,WeatherDisplay:10.37,2013-08-22 01:21:00,
2013-08-21 19:26:00,73.7,55.0,30.11,South,180,1.1,0.0,52,0.00,-RA,OVC,0.78,WeatherDisplay:10.37,2013-08-22 01:26:00,
2013-08-21 19:31:00,73.5,54.8,30.11,South,180,2.3,2.3,52,0.00,-RA,OVC,0.78,WeatherDisplay:10.37,2013-08-22 01:31:00,
2013-08-21 19:36:00,73.4,54.7,30.11,South,180,0.0,0.0,52,0.00,-RA,OVC,0.78,WeatherDisplay:10.37,2013-08-22 01:36:00,
2013-08-21 19:41:00,73.3,54.1,30.11,South,186,1.1,1.1,51,0.00,-RA,OVC,0.78,WeatherDisplay:10.37,2013-08-22 01:41:00,
2013-08-21 19:46:00,73.2,54.0,30.11,South,186,0.0,0.0,51,0.00,-RA,OVC,0.78,WeatherDisplay:10.37,2013-08-22 01:46:00,
2013-08-21 19:51:00,73.1,53.9,30.11,South,186,0.0,0.1,51,0.00,-RA,OVC,0.78,WeatherDisplay:10.37,2013-08-22 01:51:00,
2013-08-21 19:56:00,73.0,53.8,30.11,South,186,2.3,2.3,51,0.00,-RA,OVC,0.78,WeatherDisplay:10.37,2013-08-22 01:56:00,
2013-08-21 20:01:00,72.8,54.1,30.11,South,186,1.1,0.0,52,0.00,-RA,OVC,0.78,WeatherDisplay:10.37,2013-08-22 02:01:00,
2013-08-21 20:06:00,72.7,54.1,30.11,South,186,0.0,0.0,52,0.00,-RA,OVC,0.78,WeatherDisplay:10.37,2013-08-22 02:06:00,
2013-08-21 20:11:00,72.6,54.0,30.11,South,186,2.3,2.3,52,0.00,-RA,OVC,0.78,WeatherDisplay:10.37,2013-08-22 02:11:00,
2013-08-21 20:16:00,72.5,53.9,30.11,South,175,1.1,0.0,52,0.00,-RA,OVC,0.78,WeatherDisplay:10.37,2013-08-22 02:16:00,
2013-08-21 20:21:00,72.5,54.4,30.11,South,175,0.0,0.0,53,0.00,-RA,OVC,0.78,WeatherDisplay:10.37,2013-08-22 02:21:00,
2013-08-21 20:26:00,72.5,54.4,30.11,South,175,0.0,0.0,53,0.00,-RA,OVC,0.78,WeatherDisplay:10.37,2013-08-22 02:26:00,
2013-08-21 20:31:00,72.4,54.3,30.11,ESE,111,2.3,2.3,53,0.00,-RA,OVC,0.78,WeatherDisplay:10.37,2013-08-22 02:31:00,
2013-08-21 20:36:00,72.5,53.3,30.11,ESE,106,3.5,0.0,51,0.00,-RA,OVC,0.78,WeatherDisplay:10.37,2013-08-22 02:36:00,
2013-08-21 20:41:00,72.6,53.4,30.11,ESE,106,0.0,0.0,51,0.00,-RA,OVC,0.78,WeatherDisplay:10.37,2013-08-22 02:41:00,
2013-08-21 20:46:00,72.6,53.4,30.11,ESE,106,2.0,2.0,51,0.00,-RA,OVC,0.78,WeatherDisplay:10.37,2013-08-22 02:46:00,
2013-08-21 20:51:00,72.6,54.0,30.11,ESE,106,1.1,1.1,52,0.00,-RA,OVC,0.78,WeatherDisplay:10.37,2013-08-22 02:51:00,
2013-08-21 20:56:00,72.6,54.0,30.11,ESE,105,1.1,1.1,52,0.00,-RA,OVC,0.78,WeatherDisplay:10.37,2013-08-22 02:56:00,
2013-08-21 21:01:00,72.6,54.0,30.11,East,94,3.5,3.5,52,0.00,-RA,OVC,0.78,WeatherDisplay:10.37,2013-08-22 03:01:00,
2013-08-21 21:06:00,72.8,54.1,30.11,ENE,66,3.5,3.5,52,0.00,-RA,OVC,0.78,WeatherDisplay:10.37,2013-08-22 03:06:00,
2013-08-21 21:11:00,72.8,53.6,30.11,ENE,65,3.5,3.5,51,0.00,-RA,OVC,0.78,WeatherDisplay:10.37,2013-08-22 03:11:00,
2013-08-21 21:16:00,72.9,53.7,30.11,ENE,65,0.0,0.0,51,0.00,-RA,OVC,0.78,WeatherDisplay:10.37,2013-08-22 03:16:00,
2013-08-21 21:21:00,72.8,53.6,30.11,ENE,65,0.0,0.0,51,0.00,-RA,OVC,0.78,WeatherDisplay:10.37,2013-08-22 03:21:00,
2013-08-21 21:26:00,72.7,54.1,30.11,ENE,65,1.1,1.1,52,0.00,-RA,OVC,0.78,WeatherDisplay:10.37,2013-08-22 03:26:00,
2013-08-21 21:31:00,72.6,54.0,30.11,ENE,65,0.0,0.0,52,0.00,-RA,OVC,0.78,WeatherDisplay:10.37,2013-08-22 03:31:00,
2013-08-21 21:36:00,72.6,54.0,30.11,ENE,65,1.1,0.0,52,0.00,-RA,OVC,0.78,WeatherDisplay:10.37,2013-08-22 03:36:00,
2013-08-21 21:41:00,72.6,54.0,30.11,ENE,65,0.0,0.0,52,0.00,-RA,OVC,0.78,WeatherDisplay:10.37,2013-08-22 03:41:00,
2013-08-21 21:46:00,72.5,53.9,30.11,ENE,65,0.0,0.0,52,0.00,-RA,OVC,0.78,WeatherDisplay:10.37,2013-08-22 03:46:00,
2013-08-21 21:51:00,72.4,53.8,30.11,ENE,65,0.0,0.0,52,0.00,-RA,OVC,0.78,WeatherDisplay:10.37,2013-08-22 03:51:00,
2013-08-21 21:56:00,72.2,53.1,30.11,ENE,65,2.3,2.3,51,0.00,-RA,OVC,0.78,WeatherDisplay:10.37,2013-08-22 03:56:00,
2013-08-21 22:01:00,72.1,53.0,30.11,ENE,65,0.0,0.0,51,0.00,-RA,OVC,0.78,WeatherDisplay:10.37,2013-08-22 04:01:00,
2013-08-21 22:06:00,72.0,52.9,30.11,ENE,65,1.1,0.0,51,0.00,-RA,OVC,0.78,WeatherDisplay:10.37,2013-08-22 04:06:00,
2013-08-21 22:11:00,71.9,53.3,30.11,ENE,65,0.0,0.0,52,0.00,-RA,OVC,0.78,WeatherDisplay:10.37,2013-08-22 04:11:00,
2013-08-21 22:16:00,71.7,53.1,30.11,ENE,65,0.0,0.0,52,0.00,-RA,OVC,0.78,WeatherDisplay:10.37,2013-08-22 04:16:00,
2013-08-21 22:21:00,71.6,53.0,30.17,ENE,65,0.0,0.0,52,0.00,-RA,OVC,0.78,WeatherDisplay:10.37,2013-08-22 04:21:00,
2013-08-21 22:26:00,71.3,53.3,30.17,ENE,65,0.0,0.0,53,0.00,-RA,OVC,0.78,WeatherDisplay:10.37,2013-08-22 04:26:00,
2013-08-21 22:31:00,71.1,53.6,30.16,ENE,65,0.0,0.0,54,0.00,-RA,OVC,0.78,WeatherDisplay:10.37,2013-08-22 04:31:00,
2013-08-21 22:36:00,70.7,53.2,30.16,ENE,65,0.0,0.0,54,0.00,-RA,OVC,0.78,WeatherDisplay:10.37,2013-08-22 04:36:00,
2013-08-21 22:41:00,70.3,53.4,30.16,ENE,65,0.0,0.0,55,0.00,-RA,OVC,0.78,WeatherDisplay:10.37,2013-08-22 04:41:00,
2013-08-21 22:46:00,69.9,53.5,30.16,ENE,65,0.0,0.0,56,0.00,-RA,OVC,0.78,WeatherDisplay:10.37,2013-08-22 04:46:00,
2013-08-21 22:51:00,69.4,54.0,30.16,ENE,65,0.0,0.0,58,0.00,-RA,OVC,0.78,WeatherDisplay:10.37,2013-08-22 04:51:00,
2013-08-21 22:56:00,69.0,53.6,30.16,ENE,65,0.0,0.0,58,0.00,-RA,OVC,0.78,WeatherDisplay:10.37,2013-08-22 04:56:00,
2013-08-21 23:01:00,68.6,53.2,30.16,ENE,65,0.0,0.0,58,0.00,-RA,OVC,0.78,WeatherDisplay:10.37,2013-08-22 05:01:00,
2013-08-21 23:06:00,68.3,53.4,30.16,ENE,65,0.0,0.0,59,0.00,-RA,OVC,0.78,WeatherDisplay:10.37,2013-08-22 05:06:00,
2013-08-21 23:11:00,67.9,53.5,30.16,ENE,65,0.0,0.0,60,0.00,-RA,OVC,0.78,WeatherDisplay:10.37,2013-08-22 05:11:00,
2013-08-21 23:16:00,67.5,54.0,30.16,ENE,65,0.0,0.0,62,0.00,-RA,OVC,0.78,WeatherDisplay:10.37,2013-08-22 05:16:00,
2013-08-21 23:21:00,67.2,53.3,30.16,ENE,65,0.0,0.0,61,0.00,-RA,OVC,0.78,WeatherDisplay:10.37,2013-08-22 05:21:00,
2013-08-21 23:26:00,66.8,52.9,30.16,ENE,65,0.0,0.0,61,0.00,-RA,OVC,0.78,WeatherDisplay:10.37,2013-08-22 05:26:00,
2013-08-21 23:31:00,66.5,53.5,30.16,ENE,65,0.0,0.0,63,0.00,-RA,OVC,0.78,WeatherDisplay:10.37,2013-08-22 05:31:00,
2013-08-21 23:36:00,66.2,53.7,30.16,ENE,65,0.0,0.0,64,0.00,-RA,OVC,0.78,WeatherDisplay:10.37,2013-08-22 05:36:00,
2013-08-21 23:41:00,65.9,53.4,30.16,ENE,65,0.0,0.0,64,0.00,-RA,OVC,0.78,WeatherDisplay:10.37,2013-08-22 05:41:00,
2013-08-21 23:46:00,65.6,53.9,30.16,ENE,65,0.0,0.0,66,0.00,-RA,OVC,0.78,WeatherDisplay:10.37,2013-08-22 05:46:00,
2013-08-21 23:51:00,65.3,53.6,30.16,ENE,65,0.0,0.0,66,0.00,-RA,OVC,0.78,WeatherDisplay:10.37,2013-08-22 05:51:00,
2013-08-21 23:56:00,65.1,53.9,30.16,ENE,65,0.0,0.0,67,0.00,-RA,OVC,0.78,WeatherDisplay:10.37,2013-08-22 05:56:00,